Location: Amsterdam
(30.7274°N, 84.4357°W)
Time: 07:05:44
(UTC+00:00)

Transit 2A Rocket - Pass Details

Date: 23 February 2026
Orbit: 583 x 900 km, 66.7° (Epoch: 8 March)

Event Time Altitude Azimuth Distance (km) Brightness Sun altitude
Rises 19:49:33 0° 209° (SSW) 3,433 9.2 40.7°
Reaches altitude 10° 19:52:00 10° 211° (SSW) 2,525 8.9 40.3°
Maximum altitude 19:57:55 73° 296° (WNW) 936 6.2 39.5°
Drops below altitude 10° 20:03:57 10° 21° (NNE) 2,569 7.4 38.6°
Sets 20:06:27 0° 23° (NNE) 3,497 8.0 38.2°
